Andrews, NC

8:23 PM EDT on September 18, 2019 (GMT -0400)
Andrews

Weather History for KRHP - August, 2019

Change the Weather History Date:

Saturday, August 24, 2019

  Actual Average (WUND) Record (WUND)
Temperature  
Mean Temperature 75 °F -  
Max Temperature 86 °F - - (-1)
Min Temperature 64 °F - - (-1)
Cooling Degree Days 10    
Growing Degree Days 25 (Base 50)    
Moisture  
Dew Point 69 °F    
Average Humidity 90    
Maximum Humidity 100    
Minimum Humidity 60    
Precipitation  
Precipitation 0.04 in - - ()
Sea Level Pressure  
Sea Level Pressure 30.09 in    
Wind  
Wind Speed 1 mph (WSW)    
Max Wind Speed 10 mph    
Max Gust Speed -    
Visibility 8 miles    
Events Fog , Rain    
Averages and records for this station are not official NWS values.
T = Trace of Precipitation, MM = Missing Value Source: NWS Daily Summary

Daily Weather History Graph

Daily Weather History Graph

Search for Another Location

Airport or City:

Astronomy

Aug. 24, 2019 Rise Set
Actual Time 7:01 AM EDT 8:13 PM EDT
Civil Twilight 6:35 AM EDT 8:39 PM EDT
Nautical Twilight 6:04 AM EDT 9:10 PM EDT
Astronomical Twilight 5:31 AM EDT 9:43 PM EDT
Moon 12:58 AM EDT (8/24) 3:22 PM EDT (8/24)
Length of Visible Light 14h 04m
Length of Day
13h 11m
Last Quarter, 39% of the Moon is Illuminated
Aug 24
Last Quarter
Aug 30
New
Sep 5
First Quarter
Sep 14
Full
Sep 21
Last Quarter

Hourly Weather History & Observations

Time (EDT) Temp. Heat Index Dew Point Humidity Pressure Visibility Wind Dir Wind Speed Gust Speed Precip Events Conditions
12:15 AM 67.1 °F - 67.1 °F 100% 30.09 in 10.0 mi Calm Calm - N/A   Scattered Clouds
12:35 AM 66.6 °F - 66.6 °F 100% 30.10 in 10.0 mi Calm Calm - N/A   Clear
12:55 AM 66.2 °F - 66.2 °F 100% 30.10 in 10.0 mi Calm Calm - N/A   Scattered Clouds
1:15 AM 65.8 °F - 65.8 °F 100% 30.10 in 10.0 mi Calm Calm - N/A   Scattered Clouds
1:35 AM 65.7 °F - 65.7 °F 100% 30.10 in 10.0 mi Calm Calm - N/A   Mostly Cloudy
1:55 AM 65.3 °F - 65.3 °F 100% 30.10 in 10.0 mi Calm Calm - N/A   Scattered Clouds
2:15 AM 65.5 °F - 65.5 °F 100% 30.10 in 10.0 mi Calm Calm - N/A   Scattered Clouds
2:35 AM 64.9 °F - 64.9 °F 100% 30.10 in 10.0 mi Calm Calm - N/A   Scattered Clouds
2:55 AM 65.1 °F - 65.1 °F 100% 30.08 in 10.0 mi Calm Calm - N/A   Clear
3:15 AM 65.1 °F - 65.1 °F 100% 30.08 in 10.0 mi Calm Calm - N/A   Mostly Cloudy
3:35 AM 65.3 °F - 65.3 °F 100% 30.08 in 2.5 mi Calm Calm - N/A   Overcast
3:55 AM 65.3 °F - 65.3 °F 100% 30.08 in 1.2 mi Calm Calm - N/A   Overcast
4:15 AM 65.5 °F - 65.5 °F 100% 30.08 in 0.5 mi Calm Calm - N/A Fog Fog
4:35 AM 65.3 °F - 65.3 °F 100% 30.08 in 1.2 mi Calm Calm - N/A   Overcast
4:55 AM 64.9 °F - 64.9 °F 100% 30.08 in 5.0 mi Calm Calm - N/A   Overcast
5:15 AM 64.9 °F - 64.9 °F 100% 30.08 in 1.0 mi Calm Calm - N/A   Overcast
5:35 AM 65.1 °F - 65.1 °F 100% 30.08 in 0.8 mi Calm Calm - N/A   Overcast
5:55 AM 64.6 °F - 64.6 °F 100% 30.09 in 1.2 mi Calm Calm - N/A   Overcast
6:15 AM 64.8 °F - 64.8 °F 100% 30.09 in 0.5 mi Calm Calm - N/A Fog Fog
6:35 AM 64.6 °F - 64.6 °F 100% 30.09 in 0.2 mi Calm Calm - N/A Fog Fog
6:55 AM 64.9 °F - 64.9 °F 100% 30.10 in 0.5 mi Calm Calm - N/A Fog Fog
7:15 AM 64.6 °F - 64.6 °F 100% 30.10 in 0.2 mi Calm Calm - N/A Fog Fog
7:35 AM 64.4 °F - 64.4 °F 100% 30.11 in 0.5 mi Calm Calm - N/A Fog Fog
7:55 AM 64.6 °F - 64.6 °F 100% 30.12 in 0.2 mi Calm Calm - N/A Fog Fog
8:15 AM 64.6 °F - 64.6 °F 100% 30.13 in 0.2 mi Calm Calm - N/A Fog Fog
8:35 AM 65.3 °F - 65.3 °F 100% 30.13 in 0.2 mi Calm Calm - N/A Fog Fog
8:55 AM 65.5 °F - 65.5 °F 100% 30.13 in 0.5 mi Calm Calm - N/A Fog Fog
9:15 AM 66.2 °F - 66.2 °F 100% 30.12 in 10.0 mi Calm Calm - N/A   Overcast
9:35 AM 67.8 °F - 67.8 °F 100% 30.13 in 2.5 mi Calm Calm - N/A   Overcast
9:55 AM 69.8 °F - 69.8 °F 100% 30.13 in 10.0 mi Calm Calm - N/A   Mostly Cloudy
10:15 AM 73.9 °F - 69.8 °F 87% 30.13 in 10.0 mi Calm Calm - N/A   Mostly Cloudy
10:35 AM 75.2 °F - 68.7 °F 80% 30.13 in 10.0 mi Calm Calm - N/A   Overcast
10:55 AM 77.0 °F - 68.9 °F 76% 30.12 in 10.0 mi Calm Calm - N/A   Scattered Clouds
11:15 AM 78.6 °F - 70.2 °F 75% 30.12 in 10.0 mi Calm Calm - N/A   Clear
11:35 AM 80.1 °F 83.4 °F 70.7 °F 73% 30.11 in 10.0 mi Calm Calm - N/A   Clear
11:55 AM 81.1 °F 84.9 °F 70.3 °F 70% 30.10 in 10.0 mi Calm Calm - N/A   Clear
12:15 PM 82.9 °F 87.7 °F 71.6 °F 68% 30.10 in 10.0 mi WSW 4.6 mph - N/A   Clear
12:35 PM 83.5 °F 89.1 °F 72.5 °F 69% 30.09 in 10.0 mi WSW 3.5 mph - N/A   Scattered Clouds
12:55 PM 84.2 °F 88.1 °F 69.6 °F 61% 30.08 in 10.0 mi Calm Calm - N/A   Scattered Clouds
1:15 PM 82.9 °F 86.7 °F 69.6 °F 64% 30.08 in 10.0 mi Calm Calm - N/A   Scattered Clouds
1:35 PM 84.4 °F 92.0 °F 74.7 °F 72% 30.07 in 10.0 mi West 5.8 mph - N/A   Clear
1:55 PM 85.1 °F 91.1 °F 72.3 °F 65% 30.07 in 10.0 mi WSW 4.6 mph - N/A   Clear
2:15 PM 85.3 °F 91.5 °F 72.3 °F 65% 30.07 in 10.0 mi West 6.9 mph - N/A   Mostly Cloudy
2:35 PM 78.6 °F - 73.0 °F 83% 30.06 in 10.0 mi NW 6.9 mph - N/A   Light Drizzle
2:55 PM 84.2 °F 91.6 °F 74.3 °F 72% 30.06 in 10.0 mi SW 6.9 mph - N/A   Scattered Clouds
3:15 PM 84.2 °F 90.9 °F 73.6 °F 70% 30.05 in 10.0 mi South 5.8 mph - N/A   Scattered Clouds
3:35 PM 83.7 °F 89.4 °F 72.3 °F 69% 30.05 in 10.0 mi SW 9.2 mph - N/A   Scattered Clouds
3:55 PM 84.7 °F 90.4 °F 71.6 °F 65% 30.05 in 10.0 mi SW 6.9 mph - N/A   Clear
4:15 PM 86.2 °F 91.4 °F 70.9 °F 60% 30.04 in 10.0 mi West 4.6 mph - N/A   Clear
4:35 PM 84.9 °F 89.7 °F 70.7 °F 62% 30.03 in 10.0 mi South 10.4 mph - N/A   Clear
4:55 PM 80.4 °F 83.6 °F 69.8 °F 70% 30.04 in 10.0 mi SSW 3.5 mph - N/A   Scattered Clouds
5:15 PM 83.3 °F 87.6 °F 70.3 °F 65% 30.03 in 10.0 mi South 6.9 mph - N/A   Scattered Clouds
5:35 PM 82.8 °F 87.2 °F 70.7 °F 67% 30.04 in 10.0 mi SW 6.9 mph - N/A   Scattered Clouds
5:55 PM 77.9 °F - 69.6 °F 76% 30.05 in 10.0 mi WSW 10.4 mph - N/A   Mostly Cloudy
6:15 PM 73.9 °F - 72.0 °F 93% 30.06 in 7.0 mi West 5.8 mph - 0.03 in Rain Light Rain
6:35 PM 76.1 °F - 73.0 °F 90% 30.06 in 10.0 mi West 3.5 mph - 0.04 in   Light Drizzle
6:55 PM 76.3 °F - 73.4 °F 91% 30.06 in 10.0 mi Calm Calm - 0.04 in   Scattered Clouds
7:15 PM 75.7 °F - 73.0 °F 91% 30.06 in 10.0 mi Calm Calm - N/A   Mostly Cloudy
7:35 PM 74.5 °F - 74.1 °F 99% 30.07 in 10.0 mi Calm Calm - N/A   Overcast
7:55 PM 74.3 °F - 74.3 °F 100% 30.07 in 10.0 mi Calm Calm - N/A   Overcast
8:15 PM 73.2 °F - 73.2 °F 100% 30.08 in 10.0 mi Calm Calm - N/A   Overcast
8:35 PM 72.9 °F - 72.9 °F 100% 30.09 in 10.0 mi Calm Calm - N/A   Overcast
8:55 PM 72.1 °F - 72.1 °F 100% 30.09 in 10.0 mi Calm Calm - N/A   Mostly Cloudy
9:15 PM 71.8 °F - 71.8 °F 100% 30.09 in 10.0 mi Calm Calm - N/A   Mostly Cloudy
9:35 PM 71.6 °F - 71.6 °F 100% 30.10 in 10.0 mi Calm Calm - N/A   Overcast
9:55 PM 71.1 °F - 71.1 °F 100% 30.11 in 10.0 mi Calm Calm - N/A   Mostly Cloudy
10:15 PM 70.3 °F - 70.3 °F 100% 30.12 in 10.0 mi Calm Calm - N/A   Scattered Clouds
10:35 PM 69.8 °F - 69.8 °F 100% 30.12 in 7.0 mi West 3.5 mph - N/A   Clear
10:55 PM 69.6 °F - 69.6 °F 100% 30.12 in 10.0 mi Calm Calm - N/A   Mostly Cloudy
11:15 PM 69.8 °F - 69.8 °F 100% 30.13 in 10.0 mi Calm Calm - N/A   Overcast
11:35 PM 70.0 °F - 70.0 °F 100% 30.12 in 10.0 mi Calm Calm - N/A   Overcast
11:55 PM 69.8 °F - 69.8 °F 100% 30.13 in 10.0 mi Calm Calm - N/A   Overcast